BUGSAT-1 (TITA)

Last updated on Fri Dec 29 2023 00:03:29 GMT+0000 (Greenwich Mean Time)

1 40014U 14033E 23362.14706259 .00005476 00000+0 42095-3 0 9994 2 40014 98.1506 30.1742 0035643 351.9919 8.0731 15.01670348519813
UTC large
Height (km)
Speed (km/s)
/
Latitude / Longitude
Inclination (degrees)
Orbital Period (minutes)
Azimuth
Elevation
Range (km)
Doppler Factor

Next 0 passes for location: London (51.5072 / 0.1276)

Sorry there are no passes over London.